Time,TemperatureF,DewpointF,PressureIn,WindDirection,WindDirectionDegrees,WindSpeedMPH,WindSpeedGustMPH,Humidity,HourlyPrecipIn,Conditions,Clouds,dailyrainin,SoftwareType,DateUTC
2013-01-19 00:02:00,30.0,15.0,30.24,SSE,166,0.0,1.0,52,0.00,,,0.00,,2013-01-19 07:02:00,
2013-01-19 00:11:00,30.0,15.0,30.24,SSE,166,0.0,1.0,52,0.00,,,0.00,,2013-01-19 07:11:00,
2013-01-19 00:22:00,30.0,15.0,30.24,SSE,166,0.0,1.0,53,0.00,,,0.00,,2013-01-19 07:22:00,
2013-01-19 00:32:00,29.0,14.0,30.24,SSE,165,0.0,2.0,54,0.00,,,0.00,,2013-01-19 07:32:00,
2013-01-19 00:42:00,29.0,14.0,30.24,SSE,165,0.0,2.0,54,0.00,,,0.00,,2013-01-19 07:42:00,
2013-01-19 00:52:00,28.0,14.0,30.24,SSE,165,0.0,1.0,56,0.00,,,0.00,,2013-01-19 07:52:00,
2013-01-19 01:02:00,28.0,15.0,30.24,SSE,166,1.0,2.0,57,0.00,,,0.00,,2013-01-19 08:02:00,
2013-01-19 01:11:00,28.0,15.0,30.24,SSE,166,1.0,2.0,57,0.00,,,0.00,,2013-01-19 08:11:00,
2013-01-19 01:22:00,29.0,15.0,30.24,SSE,165,0.0,2.0,55,0.00,,,0.00,,2013-01-19 08:22:00,
2013-01-19 01:32:00,28.0,14.0,30.24,SSE,166,0.0,1.0,56,0.00,,,0.00,,2013-01-19 08:32:00,
2013-01-19 01:42:00,28.0,14.0,30.24,SSE,166,0.0,1.0,56,0.00,,,0.00,,2013-01-19 08:42:00,
2013-01-19 01:53:00,27.0,14.0,30.24,SSE,165,0.0,0.0,58,0.00,,,0.00,,2013-01-19 08:53:00,
2013-01-19 02:02:00,28.0,15.0,30.24,SSE,166,0.0,2.0,57,0.00,,,0.00,,2013-01-19 09:02:00,
2013-01-19 02:11:00,28.0,15.0,30.24,SSE,166,0.0,2.0,57,0.00,,,0.00,,2013-01-19 09:11:00,
2013-01-19 02:22:00,28.0,15.0,30.24,SSE,166,0.0,1.0,57,0.00,,,0.00,,2013-01-19 09:22:00,
2013-01-19 02:32:00,28.0,15.0,30.25,SSE,165,0.0,2.0,58,0.00,,,0.00,,2013-01-19 09:32:00,
2013-01-19 02:42:00,28.0,15.0,30.25,SSE,165,0.0,2.0,58,0.00,,,0.00,,2013-01-19 09:42:00,
2013-01-19 02:52:00,27.0,14.0,30.25,SSE,166,2.0,4.0,58,0.00,,,0.00,,2013-01-19 09:52:00,
2013-01-19 03:01:00,28.0,15.0,30.25,SSE,165,0.0,1.0,57,0.00,,,0.00,,2013-01-19 10:01:00,
2013-01-19 03:12:00,28.0,15.0,30.25,SSE,165,0.0,1.0,57,0.00,,,0.00,,2013-01-19 10:12:00,
2013-01-19 03:22:00,27.0,14.0,30.26,SSE,165,0.0,0.0,58,0.00,,,0.00,,2013-01-19 10:22:00,
2013-01-19 03:32:00,26.0,14.0,30.26,SSE,166,0.0,0.0,59,0.00,,,0.00,,2013-01-19 10:32:00,
2013-01-19 03:42:00,26.0,14.0,30.26,SSE,166,0.0,0.0,59,0.00,,,0.00,,2013-01-19 10:42:00,
2013-01-19 03:52:00,27.0,15.0,30.25,SSE,166,0.0,2.0,60,0.00,,,0.00,,2013-01-19 10:52:00,
2013-01-19 04:02:00,27.0,15.0,30.25,SSE,165,0.0,0.0,59,0.00,,,0.00,,2013-01-19 11:02:00,
2013-01-19 04:11:00,27.0,15.0,30.25,SSE,165,0.0,0.0,59,0.00,,,0.00,,2013-01-19 11:11:00,
2013-01-19 05:47:00,27.0,15.0,30.25,SSE,166,0.0,0.0,60,0.00,,,0.00,,2013-01-19 12:47:00,
2013-01-19 05:53:00,26.0,15.0,30.24,SSE,166,0.0,1.0,62,0.00,,,0.00,,2013-01-19 12:53:00,
2013-01-19 06:02:00,28.0,16.0,30.25,SSE,166,0.0,2.0,59,0.00,,,0.00,,2013-01-19 13:02:00,
2013-01-19 06:11:00,28.0,16.0,30.25,SSE,166,0.0,2.0,59,0.00,,,0.00,,2013-01-19 13:11:00,
2013-01-19 06:22:00,28.0,16.0,30.25,SSE,165,1.0,2.0,59,0.00,,,0.00,,2013-01-19 13:22:00,
2013-01-19 06:32:00,28.0,15.0,30.25,SSE,166,0.0,2.0,58,0.00,,,0.00,,2013-01-19 13:32:00,
2013-01-19 06:53:00,27.0,15.0,30.25,SSE,166,0.0,4.0,59,0.00,,,0.00,,2013-01-19 13:53:00,
2013-01-19 07:01:00,27.0,15.0,30.26,SSE,165,0.0,2.0,61,0.00,,,0.00,,2013-01-19 14:01:00,
2013-01-19 07:12:00,27.0,15.0,30.26,SSE,165,0.0,2.0,61,0.00,,,0.00,,2013-01-19 14:12:00,
2013-01-19 07:22:00,27.0,15.0,30.26,SSE,166,0.0,1.0,61,0.00,,,0.00,,2013-01-19 14:22:00,
2013-01-19 07:33:00,26.0,15.0,30.27,SSE,166,0.0,1.0,62,0.00,,,0.00,,2013-01-19 14:33:00,
2013-01-19 07:42:00,26.0,15.0,30.27,SSE,166,0.0,1.0,62,0.00,,,0.00,,2013-01-19 14:42:00,
2013-01-19 07:53:00,27.0,15.0,30.27,South,172,1.0,4.0,61,0.00,,,0.00,,2013-01-19 14:53:00,
2013-01-19 08:02:00,26.0,14.0,30.27,South,172,0.0,2.0,61,0.00,,,0.00,,2013-01-19 15:02:00,
2013-01-19 08:12:00,26.0,14.0,30.27,South,172,0.0,2.0,61,0.00,,,0.00,,2013-01-19 15:12:00,
2013-01-19 08:22:00,26.0,15.0,30.28,South,172,0.0,0.0,62,0.00,,,0.00,,2013-01-19 15:22:00,
2013-01-19 08:32:00,29.0,17.0,30.29,South,172,0.0,0.0,60,0.00,,,0.00,,2013-01-19 15:32:00,
2013-01-19 08:53:00,31.0,16.0,30.29,South,172,1.0,2.0,54,0.00,,,0.00,,2013-01-19 15:53:00,
2013-01-19 09:02:00,33.0,17.0,30.30,South,172,0.0,2.0,52,0.00,,,0.00,,2013-01-19 16:02:00,
2013-01-19 09:22:00,36.0,18.0,30.30,South,172,0.0,2.0,47,0.00,,,0.00,,2013-01-19 16:22:00,
2013-01-19 09:32:00,36.0,17.0,30.30,South,172,0.0,2.0,46,0.00,,,0.00,,2013-01-19 16:32:00,
2013-01-19 09:53:00,39.0,19.0,30.30,SSE,167,1.0,2.0,44,0.00,,,0.00,,2013-01-19 16:53:00,
2013-01-19 10:02:00,40.0,19.0,30.30,SSE,150,1.0,2.0,42,0.00,,,0.00,,2013-01-19 17:02:00,
2013-01-19 10:32:00,41.0,20.0,30.31,North,5,2.0,3.0,42,0.00,,,0.00,,2013-01-19 17:32:00,
2013-01-19 10:43:00,41.0,20.0,30.31,North,5,2.0,3.0,42,0.00,,,0.00,,2013-01-19 17:43:00,
2013-01-19 10:54:00,42.0,19.0,30.31,NNE,17,3.0,5.0,40,0.00,,,0.00,,2013-01-19 17:54:00,
2013-01-19 11:12:00,43.0,20.0,30.31,NE,47,3.0,5.0,39,0.00,,,0.00,,2013-01-19 18:12:00,
2013-01-19 11:23:00,43.0,19.0,30.30,NE,45,2.0,3.0,38,0.00,,,0.00,,2013-01-19 18:23:00,
2013-01-19 11:32:00,45.0,20.0,30.29,NE,49,0.0,3.0,36,0.00,,,0.00,,2013-01-19 18:32:00,
2013-01-19 11:43:00,45.0,20.0,30.29,NE,49,0.0,3.0,36,0.00,,,0.00,,2013-01-19 18:43:00,
2013-01-19 12:12:00,47.0,19.0,30.29,ENE,74,2.0,5.0,33,0.00,,,0.00,,2013-01-19 19:12:00,
2013-01-19 12:22:00,48.0,20.0,30.28,ENE,61,2.0,6.0,32,0.00,,,0.00,,2013-01-19 19:22:00,
2013-01-19 12:32:00,48.0,20.0,30.27,ENE,77,0.0,6.0,32,0.00,,,0.00,,2013-01-19 19:32:00,
2013-01-19 12:43:00,48.0,20.0,30.27,ENE,77,0.0,6.0,32,0.00,,,0.00,,2013-01-19 19:43:00,
2013-01-19 12:55:00,48.0,19.0,30.26,NNE,30,2.0,7.0,31,0.00,,,0.00,,2013-01-19 19:55:00,
2013-01-19 13:02:00,50.0,19.0,30.25,East,93,5.0,6.0,29,0.00,,,0.00,,2013-01-19 20:02:00,
2013-01-19 13:22:00,52.0,20.0,30.25,North,355,5.0,7.0,28,0.00,,,0.00,,2013-01-19 20:22:00,
2013-01-19 13:32:00,51.0,19.0,30.25,NE,52,4.0,7.0,28,0.00,,,0.00,,2013-01-19 20:32:00,
2013-01-19 13:42:00,51.0,19.0,30.25,NE,52,4.0,7.0,28,0.00,,,0.00,,2013-01-19 20:42:00,
2013-01-19 13:55:00,51.0,19.0,30.24,NE,46,4.0,8.0,28,0.00,,,0.00,,2013-01-19 20:55:00,
2013-01-19 14:02:00,52.0,19.0,30.24,NE,49,4.0,6.0,27,0.00,,,0.00,,2013-01-19 21:02:00,
2013-01-19 14:12:00,52.0,19.0,30.24,NE,49,4.0,6.0,27,0.00,,,0.00,,2013-01-19 21:12:00,
2013-01-19 14:22:00,52.0,19.0,30.23,East,95,1.0,6.0,27,0.00,,,0.00,,2013-01-19 21:22:00,
2013-01-19 14:32:00,52.0,18.0,30.25,NE,53,5.0,8.0,26,0.00,,,0.00,,2013-01-19 21:32:00,
2013-01-19 14:44:00,52.0,18.0,30.25,NE,53,5.0,8.0,26,0.00,,,0.00,,2013-01-19 21:44:00,
2013-01-19 14:57:00,54.0,20.0,30.25,East,86,4.0,6.0,26,0.00,,,0.00,,2013-01-19 21:57:00,
2013-01-19 15:02:00,52.0,18.0,30.25,ENE,75,2.0,8.0,26,0.00,,,0.00,,2013-01-19 22:02:00,
2013-01-19 15:12:00,52.0,18.0,30.25,ENE,75,2.0,8.0,26,0.00,,,0.00,,2013-01-19 22:12:00,
2013-01-19 15:23:00,53.0,19.0,30.24,East,94,3.0,8.0,26,0.00,,,0.00,,2013-01-19 22:23:00,
2013-01-19 15:32:00,53.0,19.0,30.24,ENE,77,2.0,7.0,26,0.00,,,0.00,,2013-01-19 22:32:00,
2013-01-19 15:55:00,53.0,18.0,30.24,NE,50,3.0,6.0,25,0.00,,,0.00,,2013-01-19 22:55:00,
2013-01-19 16:03:00,53.0,17.0,30.24,NE,36,2.0,7.0,24,0.00,,,0.00,,2013-01-19 23:03:00,
2013-01-19 16:12:00,53.0,17.0,30.24,NE,36,2.0,7.0,24,0.00,,,0.00,,2013-01-19 23:12:00,
2013-01-19 16:23:00,54.0,18.0,30.24,ENE,74,2.0,5.0,24,0.00,,,0.00,,2013-01-19 23:23:00,
2013-01-19 16:32:00,54.0,18.0,30.24,ENE,67,2.0,6.0,24,0.00,,,0.00,,2013-01-19 23:32:00,
2013-01-19 16:43:00,54.0,18.0,30.24,ENE,67,2.0,6.0,24,0.00,,,0.00,,2013-01-19 23:43:00,
2013-01-19 17:01:00,53.0,17.0,30.24,East,79,1.0,4.0,24,0.00,,,0.00,,2013-01-20 00:01:00,
2013-01-19 17:13:00,54.0,18.0,30.24,NE,53,2.0,4.0,24,0.00,,,0.00,,2013-01-20 00:13:00,
2013-01-19 17:23:00,53.0,17.0,30.24,NNE,20,3.0,5.0,24,0.00,,,0.00,,2013-01-20 00:23:00,
2013-01-19 17:33:00,51.0,16.0,30.24,NNE,19,2.0,4.0,25,0.00,,,0.00,,2013-01-20 00:33:00,
2013-01-19 17:43:00,51.0,16.0,30.24,NNE,19,2.0,4.0,25,0.00,,,0.00,,2013-01-20 00:43:00,
2013-01-19 18:02:00,48.0,16.0,30.24,NNE,19,0.0,2.0,28,0.00,,,0.00,,2013-01-20 01:02:00,
2013-01-19 18:12:00,48.0,16.0,30.24,NNE,19,0.0,2.0,28,0.00,,,0.00,,2013-01-20 01:12:00,
2013-01-19 18:22:00,45.0,15.0,30.24,NNE,19,0.0,1.0,30,0.00,,,0.00,,2013-01-20 01:22:00,
2013-01-19 18:43:00,43.0,15.0,30.25,NNE,19,2.0,2.0,32,0.00,,,0.00,,2013-01-20 01:43:00,
2013-01-19 18:59:00,41.0,15.0,30.25,NNE,19,0.0,2.0,34,0.00,,,0.00,,2013-01-20 01:59:00,
2013-01-19 19:12:00,40.0,15.0,30.26,NNE,19,0.0,0.0,36,0.00,,,0.00,,2013-01-20 02:12:00,
2013-01-19 19:23:00,37.0,14.0,30.24,NNE,19,0.0,0.0,38,0.00,,,0.00,,2013-01-20 02:23:00,
2013-01-19 19:33:00,37.0,14.0,30.24,NNE,19,0.0,0.0,38,0.00,,,0.00,,2013-01-20 02:33:00,
2013-01-19 19:42:00,37.0,14.0,30.24,NNE,19,0.0,0.0,38,0.00,,,0.00,,2013-01-20 02:42:00,
2013-01-19 19:57:00,36.0,14.0,30.24,NNE,19,0.0,0.0,40,0.00,,,0.00,,2013-01-20 02:57:00,
2013-01-19 20:03:00,36.0,14.0,30.24,NNE,19,0.0,0.0,40,0.00,,,0.00,,2013-01-20 03:03:00,
2013-01-19 20:12:00,36.0,14.0,30.24,NNE,19,0.0,0.0,40,0.00,,,0.00,,2013-01-20 03:12:00,
2013-01-19 20:23:00,35.0,14.0,30.24,NNE,19,0.0,0.0,41,0.00,,,0.00,,2013-01-20 03:23:00,
2013-01-19 20:33:00,34.0,13.0,30.25,NNE,19,0.0,0.0,42,0.00,,,0.00,,2013-01-20 03:33:00,
2013-01-19 20:43:00,34.0,13.0,30.25,NNE,19,0.0,0.0,42,0.00,,,0.00,,2013-01-20 03:43:00,
2013-01-19 20:55:00,34.0,13.0,30.25,NNE,19,0.0,1.0,42,0.00,,,0.00,,2013-01-20 03:55:00,
2013-01-19 21:02:00,34.0,14.0,30.25,NNE,19,0.0,0.0,43,0.00,,,0.00,,2013-01-20 04:02:00,
2013-01-19 21:22:00,33.0,13.0,30.25,NNE,19,0.0,0.0,43,0.00,,,0.00,,2013-01-20 04:22:00,
2013-01-19 21:32:00,32.0,13.0,30.25,NNE,19,0.0,0.0,45,0.00,,,0.00,,2013-01-20 04:32:00,
2013-01-19 21:42:00,32.0,13.0,30.25,NNE,19,0.0,0.0,45,0.00,,,0.00,,2013-01-20 04:42:00,
2013-01-19 21:55:00,33.0,13.0,30.25,NNE,19,0.0,0.0,44,0.00,,,0.00,,2013-01-20 04:55:00,
2013-01-19 22:01:00,34.0,13.0,30.25,East,100,2.0,2.0,41,0.00,,,0.00,,2013-01-20 05:01:00,
2013-01-19 22:12:00,34.0,13.0,30.25,East,100,2.0,2.0,41,0.00,,,0.00,,2013-01-20 05:12:00,
2013-01-19 22:22:00,36.0,13.0,30.26,SSE,157,0.0,2.0,38,0.00,,,0.00,,2013-01-20 05:22:00,
2013-01-19 22:32:00,34.0,13.0,30.26,SSE,157,0.0,1.0,41,0.00,,,0.00,,2013-01-20 05:32:00,
2013-01-19 22:42:00,34.0,13.0,30.26,SSE,157,0.0,1.0,41,0.00,,,0.00,,2013-01-20 05:42:00,
2013-01-19 22:53:00,31.0,12.0,30.27,SSE,157,1.0,2.0,44,0.00,,,0.00,,2013-01-20 05:53:00,
2013-01-19 23:02:00,31.0,12.0,30.27,SSE,157,0.0,1.0,45,0.00,,,0.00,,2013-01-20 06:02:00,
2013-01-19 23:11:00,31.0,12.0,30.27,SSE,157,0.0,1.0,45,0.00,,,0.00,,2013-01-20 06:11:00,
2013-01-19 23:22:00,33.0,13.0,30.27,ESE,114,0.0,1.0,43,0.00,,,0.00,,2013-01-20 06:22:00,
2013-01-19 23:32:00,34.0,13.0,30.26,ESE,123,0.0,4.0,41,0.00,,,0.00,,2013-01-20 06:32:00,
2013-01-19 23:42:00,34.0,13.0,30.26,ESE,123,0.0,4.0,41,0.00,,,0.00,,2013-01-20 06:42:00,
2013-01-19 23:52:00,35.0,13.0,30.26,SSE,167,0.0,4.0,40,0.00,,,0.00,,2013-01-20 06:52:00,